Time,TemperatureF,DewpointF,PressureIn,WindDirection,WindDirectionDegrees,WindSpeedMPH,WindSpeedGustMPH,Humidity,HourlyPrecipIn,Conditions,Clouds,dailyrainin,SoftwareType,DateUTC
2013-02-24 00:02:00,57.2,56.9,29.81,ESE,122,6.0,8.0,99,0.01,,---,2.44,VWS V14.01,2013-02-24 05:02:00,
2013-02-24 00:07:00,57.4,57.1,29.80,SE,145,4.0,9.0,99,0.01,,---,0.00,VWS V14.01,2013-02-24 05:07:00,
2013-02-24 00:12:00,57.5,57.2,29.79,SSE,158,11.0,12.0,99,0.01,,---,0.00,VWS V14.01,2013-02-24 05:12:00,
2013-02-24 00:17:00,57.7,57.4,29.78,SE,138,11.0,12.0,99,0.00,,---,0.00,VWS V14.01,2013-02-24 05:17:00,
2013-02-24 00:22:00,57.8,57.5,29.77,SSE,148,4.0,14.0,99,0.00,,---,0.00,VWS V14.01,2013-02-24 05:22:00,
2013-02-24 00:27:00,58.0,57.7,29.77,SSE,148,12.0,12.0,99,0.00,,---,0.00,VWS V14.01,2013-02-24 05:27:00,
2013-02-24 00:32:00,58.2,57.9,29.79,SE,145,6.0,13.0,99,0.00,,---,0.00,VWS V14.01,2013-02-24 05:32:00,
2013-02-24 00:37:00,58.4,58.1,29.80,SSE,167,4.0,10.0,99,0.00,,---,0.00,VWS V14.01,2013-02-24 05:37:00,
2013-02-24 00:42:00,58.4,58.1,29.80,South,169,7.0,9.0,99,0.00,,---,0.00,VWS V14.01,2013-02-24 05:42:00,
2013-02-24 00:47:00,58.5,58.2,29.81,South,174,3.0,8.0,99,0.00,,---,0.00,VWS V14.01,2013-02-24 05:47:00,
2013-02-24 00:52:00,58.5,58.2,29.81,South,174,6.0,6.0,99,0.00,,---,0.00,VWS V14.01,2013-02-24 05:52:00,
2013-02-24 00:57:00,58.3,58.0,29.81,SW,215,1.0,8.0,99,0.00,,---,0.00,VWS V14.01,2013-02-24 05:57:00,
2013-02-24 01:02:00,58.3,58.0,29.82,SW,221,0.0,5.0,99,0.00,,---,0.00,VWS V14.01,2013-02-24 06:02:00,
2013-02-24 01:07:00,58.2,57.9,29.82,West,272,1.0,1.0,99,0.00,,---,0.00,VWS V14.01,2013-02-24 06:07:00,
2013-02-24 01:12:00,57.9,57.3,29.81,West,263,1.0,5.0,98,0.00,,---,0.00,VWS V14.01,2013-02-24 06:12:00,
2013-02-24 01:22:00,57.3,56.7,29.83,West,266,2.0,7.0,98,0.00,,---,0.00,VWS V14.01,2013-02-24 06:22:00,
2013-02-24 01:27:00,57.2,56.9,29.84,WNW,285,4.0,5.0,99,0.00,,---,0.00,VWS V14.01,2013-02-24 06:27:00,
2013-02-24 01:32:00,57.5,57.2,29.84,West,260,8.0,9.0,99,0.00,,---,0.00,VWS V14.01,2013-02-24 06:32:00,
2013-02-24 01:37:00,57.8,57.5,29.83,WNW,295,2.0,9.0,99,0.00,,---,0.00,VWS V14.01,2013-02-24 06:37:00,
2013-02-24 01:47:00,57.8,57.5,29.83,WNW,293,6.0,7.0,99,0.00,,---,0.00,VWS V14.01,2013-02-24 06:47:00,
2013-02-24 01:52:00,57.8,57.5,29.84,WNW,290,4.0,9.0,99,0.00,,---,0.00,VWS V14.01,2013-02-24 06:52:00,
2013-02-24 02:02:00,57.8,57.5,29.84,WNW,293,7.0,8.0,99,0.00,,---,0.00,VWS V14.01,2013-02-24 07:02:00,
2013-02-24 02:07:00,57.8,57.5,29.85,WNW,300,6.0,10.0,99,0.00,,---,0.00,VWS V14.01,2013-02-24 07:07:00,
2013-02-24 02:12:00,57.7,57.4,29.85,WNW,293,6.0,9.0,99,0.00,,---,0.00,VWS V14.01,2013-02-24 07:12:00,
2013-02-24 02:17:00,57.6,57.3,29.85,WNW,300,5.0,9.0,99,0.00,,---,0.00,VWS V14.01,2013-02-24 07:17:00,
2013-02-24 02:27:00,57.3,57.0,29.86,WNW,289,4.0,9.0,99,0.00,,---,0.00,VWS V14.01,2013-02-24 07:27:00,
2013-02-24 02:32:00,57.2,56.9,29.86,WNW,303,6.0,10.0,99,0.00,,---,0.00,VWS V14.01,2013-02-24 07:32:00,
2013-02-24 02:37:00,57.1,56.8,29.86,WNW,291,5.0,8.0,99,0.00,,---,0.00,VWS V14.01,2013-02-24 07:37:00,
2013-02-24 02:42:00,57.0,56.7,29.86,WNW,293,6.0,9.0,99,0.00,,---,0.00,VWS V14.01,2013-02-24 07:42:00,
2013-02-24 02:47:00,56.7,56.4,29.86,West,267,5.0,10.0,99,0.00,,---,0.00,VWS V14.01,2013-02-24 07:47:00,
2013-02-24 02:52:00,56.5,56.2,29.86,WNW,290,7.0,11.0,99,0.00,,---,0.00,VWS V14.01,2013-02-24 07:52:00,
2013-02-24 02:57:00,56.2,55.9,29.86,WNW,298,4.0,10.0,99,0.00,,---,0.00,VWS V14.01,2013-02-24 07:57:00,
2013-02-24 03:02:00,55.8,55.5,29.87,WNW,291,5.0,11.0,99,0.00,,---,0.00,VWS V14.01,2013-02-24 08:02:00,
2013-02-24 03:07:00,55.4,55.1,29.87,WNW,285,8.0,11.0,99,0.00,,---,0.00,VWS V14.01,2013-02-24 08:07:00,
2013-02-24 03:12:00,55.0,54.7,29.87,WNW,297,7.0,10.0,99,0.00,,---,0.00,VWS V14.01,2013-02-24 08:12:00,
2013-02-24 03:17:00,54.5,54.2,29.87,NW,308,7.0,11.0,99,0.00,,---,0.00,VWS V14.01,2013-02-24 08:17:00,
2013-02-24 03:22:00,54.0,53.7,29.87,WNW,302,9.0,11.0,99,0.00,,---,0.00,VWS V14.01,2013-02-24 08:22:00,
2013-02-24 03:27:00,53.7,53.4,29.88,WNW,286,7.0,10.0,99,0.00,,---,0.00,VWS V14.01,2013-02-24 08:27:00,
2013-02-24 03:32:00,53.3,53.0,29.88,WNW,290,6.0,10.0,99,0.00,,---,0.00,VWS V14.01,2013-02-24 08:32:00,
2013-02-24 03:37:00,53.0,52.7,29.88,West,270,2.0,10.0,99,0.00,,---,0.00,VWS V14.01,2013-02-24 08:37:00,
2013-02-24 03:42:00,52.8,52.5,29.87,West,271,6.0,8.0,99,0.00,,---,0.00,VWS V14.01,2013-02-24 08:42:00,
2013-02-24 03:47:00,52.7,52.4,29.87,West,271,3.0,7.0,99,0.00,,---,0.00,VWS V14.01,2013-02-24 08:47:00,
2013-02-24 03:52:00,52.6,52.3,29.88,WNW,301,3.0,8.0,99,0.00,,---,0.00,VWS V14.01,2013-02-24 08:52:00,
2013-02-24 03:57:00,52.6,52.3,29.88,WNW,288,3.0,9.0,99,0.00,,---,0.00,VWS V14.01,2013-02-24 08:57:00,
2013-02-24 04:02:00,52.5,52.2,29.88,WNW,298,6.0,10.0,99,0.00,,---,0.00,VWS V14.01,2013-02-24 09:02:00,
2013-02-24 04:07:00,52.5,52.2,29.88,NW,307,7.0,9.0,99,0.00,,---,0.00,VWS V14.01,2013-02-24 09:07:00,
2013-02-24 04:12:00,52.4,52.1,29.88,NW,316,4.0,8.0,99,0.00,,---,0.00,VWS V14.01,2013-02-24 09:12:00,
2013-02-24 04:17:00,52.4,52.1,29.88,NW,312,3.0,8.0,99,0.00,,---,0.00,VWS V14.01,2013-02-24 09:17:00,
2013-02-24 04:22:00,52.2,51.9,29.88,NW,322,4.0,8.0,99,0.00,,---,0.00,VWS V14.01,2013-02-24 09:22:00,
2013-02-24 04:27:00,51.9,51.6,29.88,WNW,294,8.0,10.0,99,0.00,,---,0.00,VWS V14.01,2013-02-24 09:27:00,
2013-02-24 04:32:00,51.7,51.4,29.88,WNW,300,5.0,11.0,99,0.00,,---,0.00,VWS V14.01,2013-02-24 09:32:00,
2013-02-24 04:37:00,51.4,51.1,29.89,North,349,9.0,12.0,99,0.00,,---,0.00,VWS V14.01,2013-02-24 09:37:00,
2013-02-24 04:42:00,51.1,50.8,29.89,WNW,301,6.0,14.0,99,0.00,,---,0.00,VWS V14.01,2013-02-24 09:42:00,
2013-02-24 04:47:00,50.9,50.6,29.89,WNW,295,10.0,11.0,99,0.00,,---,0.00,VWS V14.01,2013-02-24 09:47:00,
2013-02-24 04:52:00,50.8,50.5,29.90,WNW,284,4.0,13.0,99,0.00,,---,0.00,VWS V14.01,2013-02-24 09:52:00,
2013-02-24 04:57:00,50.7,50.4,29.90,WNW,301,9.0,13.0,99,0.00,,---,0.00,VWS V14.01,2013-02-24 09:57:00,
2013-02-24 05:02:00,50.5,50.2,29.89,NW,310,4.0,10.0,99,0.00,,---,0.00,VWS V14.01,2013-02-24 10:02:00,
2013-02-24 05:07:00,50.4,50.1,29.89,WNW,295,3.0,11.0,99,0.00,,---,0.00,VWS V14.01,2013-02-24 10:07:00,
2013-02-24 05:12:00,50.4,50.1,29.89,WNW,293,7.0,7.0,99,0.00,,---,0.00,VWS V14.01,2013-02-24 10:12:00,
2013-02-24 05:22:00,50.4,50.1,29.89,WNW,298,4.0,5.0,99,0.00,,---,0.00,VWS V14.01,2013-02-24 10:22:00,
2013-02-24 05:27:00,50.3,50.0,29.88,WNW,288,3.0,5.0,99,0.00,,---,0.00,VWS V14.01,2013-02-24 10:27:00,
2013-02-24 05:32:00,50.2,49.9,29.89,WNW,298,5.0,5.0,99,0.00,,---,0.00,VWS V14.01,2013-02-24 10:32:00,
2013-02-24 05:37:00,50.1,49.8,29.89,WNW,293,5.0,6.0,99,0.00,,---,0.00,VWS V14.01,2013-02-24 10:37:00,
2013-02-24 05:42:00,50.1,49.8,29.90,WNW,300,3.0,6.0,99,0.00,,---,0.00,VWS V14.01,2013-02-24 10:42:00,
2013-02-24 05:47:00,50.0,49.7,29.90,WNW,293,4.0,7.0,99,0.00,,---,0.00,VWS V14.01,2013-02-24 10:47:00,
2013-02-24 05:57:00,49.9,49.6,29.90,WNW,288,1.0,4.0,99,0.00,,---,0.00,VWS V14.01,2013-02-24 10:57:00,
2013-02-24 06:02:00,50.0,49.7,29.90,WNW,289,3.0,4.0,99,0.00,,---,0.00,VWS V14.01,2013-02-24 11:02:00,
2013-02-24 06:07:00,50.0,49.7,29.90,WNW,297,0.0,3.0,99,0.00,,---,0.00,VWS V14.01,2013-02-24 11:07:00,
2013-02-24 06:12:00,50.0,49.7,29.90,SSW,207,0.0,4.0,99,0.00,,---,0.00,VWS V14.01,2013-02-24 11:12:00,
2013-02-24 06:17:00,50.0,49.7,29.90,West,259,2.0,4.0,99,0.00,,---,0.00,VWS V14.01,2013-02-24 11:17:00,
2013-02-24 06:22:00,50.0,49.7,29.91,WNW,284,4.0,4.0,99,0.00,,---,0.00,VWS V14.01,2013-02-24 11:22:00,
2013-02-24 06:27:00,49.9,49.6,29.91,WNW,295,4.0,6.0,99,0.00,,---,0.00,VWS V14.01,2013-02-24 11:27:00,
2013-02-24 06:37:00,49.8,49.5,29.92,WNW,297,5.0,7.0,99,0.00,,---,0.00,VWS V14.01,2013-02-24 11:37:00,
2013-02-24 06:47:00,49.6,49.3,29.92,WNW,291,5.0,13.0,99,0.00,,---,0.00,VWS V14.01,2013-02-24 11:47:00,
2013-02-24 06:52:00,49.5,49.2,29.92,WNW,294,6.0,10.0,99,0.00,,---,0.00,VWS V14.01,2013-02-24 11:52:00,
2013-02-24 06:57:00,49.5,49.2,29.92,WNW,284,3.0,9.0,99,0.00,,---,0.00,VWS V14.01,2013-02-24 11:57:00,
2013-02-24 07:02:00,49.5,49.2,29.92,WNW,290,7.0,11.0,99,0.00,,---,0.00,VWS V14.01,2013-02-24 12:02:00,
2013-02-24 07:12:00,49.3,48.8,29.92,West,281,4.0,6.0,98,0.00,,---,0.00,VWS V14.01,2013-02-24 12:12:00,
2013-02-24 07:17:00,49.2,48.9,29.93,WNW,302,7.0,10.0,99,0.00,,---,0.00,VWS V14.01,2013-02-24 12:17:00,
2013-02-24 07:22:00,49.2,48.9,29.93,WNW,300,5.0,10.0,99,0.00,,---,0.00,VWS V14.01,2013-02-24 12:22:00,
2013-02-24 07:27:00,49.2,48.9,29.93,NW,304,7.0,7.0,99,0.00,,---,0.00,VWS V14.01,2013-02-24 12:27:00,
2013-02-24 07:32:00,49.2,48.9,29.93,NW,321,7.0,8.0,99,0.00,,---,0.00,VWS V14.01,2013-02-24 12:32:00,
2013-02-24 07:37:00,49.1,48.8,29.94,WNW,284,7.0,11.0,99,0.00,,---,0.00,VWS V14.01,2013-02-24 12:37:00,
2013-02-24 07:47:00,49.1,48.8,29.94,WNW,286,4.0,9.0,99,0.00,,---,0.00,VWS V14.01,2013-02-24 12:47:00,
2013-02-24 07:52:00,49.1,48.6,29.94,WNW,301,3.0,11.0,98,0.00,,---,0.00,VWS V14.01,2013-02-24 12:52:00,
2013-02-24 07:57:00,49.1,48.6,29.94,WNW,300,3.0,6.0,98,0.00,,---,0.00,VWS V14.01,2013-02-24 12:57:00,
2013-02-24 08:02:00,49.1,48.6,29.95,NW,316,6.0,8.0,98,0.00,,---,0.00,VWS V14.01,2013-02-24 13:02:00,
2013-02-24 08:07:00,49.0,48.5,29.95,WNW,297,5.0,9.0,98,0.00,,---,0.00,VWS V14.01,2013-02-24 13:07:00,
2013-02-24 08:12:00,48.9,48.4,29.95,NW,319,8.0,9.0,98,0.00,,---,0.00,VWS V14.01,2013-02-24 13:12:00,
2013-02-24 08:17:00,48.9,48.4,29.95,WNW,288,8.0,9.0,98,0.00,,---,0.00,VWS V14.01,2013-02-24 13:17:00,
2013-02-24 08:22:00,49.0,48.5,29.95,NNW,331,5.0,10.0,98,0.00,,---,0.00,VWS V14.01,2013-02-24 13:22:00,
2013-02-24 08:27:00,49.0,48.5,29.96,NW,311,7.0,10.0,98,0.00,,---,0.00,VWS V14.01,2013-02-24 13:27:00,
2013-02-24 08:37:00,49.1,48.6,29.96,NW,316,7.0,11.0,98,0.00,,---,0.00,VWS V14.01,2013-02-24 13:37:00,
2013-02-24 08:47:00,49.5,48.7,29.96,WNW,293,6.0,8.0,97,0.00,,---,0.00,VWS V14.01,2013-02-24 13:47:00,
2013-02-24 08:57:00,50.0,49.2,29.97,NW,323,6.0,11.0,97,0.00,,---,0.00,VWS V14.01,2013-02-24 13:57:00,
2013-02-24 09:02:00,50.3,49.5,29.97,NNW,342,5.0,10.0,97,0.00,,---,0.00,VWS V14.01,2013-02-24 14:02:00,
2013-02-24 09:12:00,50.1,48.7,29.97,NW,307,5.0,12.0,95,0.00,,---,0.00,VWS V14.01,2013-02-24 14:12:00,
2013-02-24 09:22:00,50.6,49.2,29.97,NW,304,6.0,12.0,95,0.00,,---,0.00,VWS V14.01,2013-02-24 14:22:00,
2013-02-24 09:32:00,51.3,49.3,29.97,NW,311,7.0,12.0,93,0.00,,---,0.00,VWS V14.01,2013-02-24 14:32:00,
2013-02-24 09:37:00,51.6,49.4,29.98,NNW,347,8.0,11.0,92,0.00,,---,0.00,VWS V14.01,2013-02-24 14:37:00,
2013-02-24 09:42:00,51.9,49.7,29.98,WNW,303,7.0,8.0,92,0.00,,---,0.00,VWS V14.01,2013-02-24 14:42:00,
2013-02-24 09:52:00,52.8,50.2,29.97,NW,304,8.0,8.0,91,0.00,,---,0.00,VWS V14.01,2013-02-24 14:52:00,
2013-02-24 09:57:00,52.6,49.2,29.98,NW,307,6.0,12.0,88,0.00,,---,0.00,VWS V14.01,2013-02-24 14:57:00,
2013-02-24 10:02:00,53.1,50.0,29.98,NW,317,6.0,9.0,89,0.00,,---,0.00,VWS V14.01,2013-02-24 15:02:00,
2013-02-24 10:07:00,53.3,49.8,29.98,WNW,296,6.0,12.0,88,0.00,,---,0.00,VWS V14.01,2013-02-24 15:07:00,
2013-02-24 10:12:00,53.9,50.1,29.98,WNW,295,4.0,11.0,87,0.00,,---,0.00,VWS V14.01,2013-02-24 15:12:00,
2013-02-24 10:22:00,54.3,49.9,29.98,NW,308,8.0,10.0,85,0.00,,---,0.00,VWS V14.01,2013-02-24 15:22:00,
2013-02-24 10:32:00,54.5,49.5,29.99,NW,308,8.0,10.0,83,0.00,,---,0.00,VWS V14.01,2013-02-24 15:32:00,
2013-02-24 10:37:00,54.7,49.7,29.98,NNW,335,6.0,10.0,83,0.00,,---,0.00,VWS V14.01,2013-02-24 15:37:00,
2013-02-24 10:42:00,55.3,50.2,29.98,WNW,297,3.0,9.0,83,0.00,,---,0.00,VWS V14.01,2013-02-24 15:42:00,
2013-02-24 10:47:00,55.6,49.9,29.99,NW,318,5.0,9.0,81,0.00,,---,0.00,VWS V14.01,2013-02-24 15:47:00,
2013-02-24 10:52:00,56.0,50.6,29.99,WNW,295,7.0,9.0,82,0.00,,---,0.00,VWS V14.01,2013-02-24 15:52:00,
2013-02-24 10:57:00,56.1,50.0,29.99,WNW,300,7.0,9.0,80,0.00,,---,0.00,VWS V14.01,2013-02-24 15:57:00,
2013-02-24 11:02:00,56.4,50.0,29.99,NW,316,4.0,9.0,79,0.00,,---,0.00,VWS V14.01,2013-02-24 16:02:00,
2013-02-24 11:07:00,56.8,50.4,29.99,NW,316,4.0,12.0,79,0.00,,---,0.00,VWS V14.01,2013-02-24 16:07:00,
2013-02-24 11:12:00,57.1,50.0,29.99,WNW,301,6.0,10.0,77,0.00,,---,0.00,VWS V14.01,2013-02-24 16:12:00,
2013-02-24 11:17:00,57.2,49.7,29.99,NW,319,5.0,9.0,76,0.00,,---,0.00,VWS V14.01,2013-02-24 16:17:00,
2013-02-24 11:22:00,57.7,50.5,29.99,NW,317,6.0,9.0,77,0.00,,---,0.00,VWS V14.01,2013-02-24 16:22:00,
2013-02-24 11:32:00,57.9,50.0,29.99,NNW,348,4.0,11.0,75,0.00,,---,0.00,VWS V14.01,2013-02-24 16:32:00,
2013-02-24 11:37:00,57.9,50.7,29.98,WNW,287,3.0,9.0,77,0.00,,---,0.00,VWS V14.01,2013-02-24 16:37:00,
2013-02-24 11:42:00,58.5,51.3,29.98,WNW,283,7.0,9.0,77,0.00,,---,0.00,VWS V14.01,2013-02-24 16:42:00,
2013-02-24 11:47:00,58.6,51.4,29.98,NW,308,4.0,7.0,77,0.00,,---,0.00,VWS V14.01,2013-02-24 16:47:00,
2013-02-24 11:52:00,59.0,51.8,29.98,WNW,290,5.0,7.0,77,0.00,,---,0.00,VWS V14.01,2013-02-24 16:52:00,
2013-02-24 11:57:00,59.1,51.5,29.98,West,271,1.0,7.0,76,0.00,,---,0.00,VWS V14.01,2013-02-24 16:57:00,
2013-02-24 12:07:00,59.7,51.0,29.98,WNW,295,4.0,10.0,73,0.00,,---,0.00,VWS V14.01,2013-02-24 17:07:00,
2013-02-24 12:12:00,60.3,52.0,29.98,NW,305,2.0,7.0,74,0.00,,---,0.00,VWS V14.01,2013-02-24 17:12:00,
2013-02-24 12:17:00,60.4,51.0,29.98,NW,304,3.0,8.0,71,0.00,,---,0.00,VWS V14.01,2013-02-24 17:17:00,
2013-02-24 12:22:00,60.7,51.6,29.97,West,277,3.0,6.0,72,0.00,,---,0.00,VWS V14.01,2013-02-24 17:22:00,
2013-02-24 12:27:00,61.2,50.6,29.97,NNW,327,4.0,7.0,68,0.00,,---,0.00,VWS V14.01,2013-02-24 17:27:00,
2013-02-24 12:32:00,61.6,50.5,29.97,WNW,297,7.0,10.0,67,0.00,,---,0.00,VWS V14.01,2013-02-24 17:32:00,
2013-02-24 12:42:00,62.1,51.4,29.97,WNW,303,3.0,7.0,68,0.00,,---,0.00,VWS V14.01,2013-02-24 17:42:00,
2013-02-24 12:47:00,62.4,51.3,29.97,WNW,289,0.0,10.0,67,0.00,,---,0.00,VWS V14.01,2013-02-24 17:47:00,
2013-02-24 12:52:00,63.0,52.7,29.97,NW,315,7.0,9.0,69,0.00,,---,0.00,VWS V14.01,2013-02-24 17:52:00,
2013-02-24 12:57:00,62.9,51.0,29.97,NNW,331,3.0,9.0,65,0.00,,---,0.00,VWS V14.01,2013-02-24 17:57:00,
2013-02-24 13:02:00,62.8,50.9,29.96,West,273,5.0,6.0,65,0.00,,---,0.00,VWS V14.01,2013-02-24 18:02:00,
2013-02-24 13:12:00,63.2,51.2,29.96,WSW,243,6.0,7.0,65,0.00,,---,0.00,VWS V14.01,2013-02-24 18:12:00,
2013-02-24 13:17:00,63.6,51.6,29.96,North,3,7.0,9.0,65,0.00,,---,0.00,VWS V14.01,2013-02-24 18:17:00,
2013-02-24 13:22:00,63.7,51.3,29.96,WNW,303,5.0,8.0,64,0.00,,---,0.00,VWS V14.01,2013-02-24 18:22:00,
2013-02-24 13:32:00,63.8,50.5,29.95,WSW,245,5.0,7.0,62,0.00,,---,0.00,VWS V14.01,2013-02-24 18:32:00,
2013-02-24 13:37:00,64.2,50.9,29.95,NW,309,5.0,7.0,62,0.00,,---,0.00,VWS V14.01,2013-02-24 18:37:00,
2013-02-24 13:47:00,64.7,51.4,29.94,NNW,335,5.0,9.0,62,0.00,,---,0.00,VWS V14.01,2013-02-24 18:47:00,
2013-02-24 13:52:00,64.7,51.4,29.94,NNW,327,3.0,8.0,62,0.00,,---,0.00,VWS V14.01,2013-02-24 18:52:00,
2013-02-24 13:57:00,64.9,50.2,29.95,WNW,288,6.0,7.0,59,0.00,,---,0.00,VWS V14.01,2013-02-24 18:57:00,
2013-02-24 14:02:00,65.0,49.9,29.94,WSW,249,7.0,7.0,58,0.00,,---,0.00,VWS V14.01,2013-02-24 19:02:00,
2013-02-24 14:12:00,65.9,51.2,29.94,WNW,293,6.0,9.0,59,0.00,,---,0.00,VWS V14.01,2013-02-24 19:12:00,
2013-02-24 14:22:00,65.9,49.8,29.94,West,277,2.0,7.0,56,0.00,,---,0.00,VWS V14.01,2013-02-24 19:22:00,
2013-02-24 14:32:00,66.3,50.6,29.94,WNW,300,3.0,8.0,57,0.00,,---,0.00,VWS V14.01,2013-02-24 19:32:00,
2013-02-24 14:37:00,66.1,50.0,29.94,SW,235,6.0,7.0,56,0.00,,---,0.00,VWS V14.01,2013-02-24 19:37:00,
2013-02-24 14:42:00,66.4,50.7,29.94,West,269,0.0,6.0,57,0.00,,---,0.00,VWS V14.01,2013-02-24 19:42:00,
2013-02-24 14:47:00,66.6,49.5,29.94,NNE,23,1.0,9.0,54,0.00,,---,0.00,VWS V14.01,2013-02-24 19:47:00,
2013-02-24 14:57:00,66.7,48.5,29.94,WSW,246,0.0,4.0,52,0.00,,---,0.00,VWS V14.01,2013-02-24 19:57:00,
2013-02-24 15:02:00,67.1,49.9,29.94,NW,322,2.0,8.0,54,0.00,,---,0.00,VWS V14.01,2013-02-24 20:02:00,
2013-02-24 15:07:00,67.4,47.6,29.94,NNE,20,0.0,6.0,49,0.00,,---,0.00,VWS V14.01,2013-02-24 20:07:00,
2013-02-24 15:12:00,67.1,47.3,29.94,WSW,246,5.0,9.0,49,0.00,,---,0.00,VWS V14.01,2013-02-24 20:12:00,
2013-02-24 15:17:00,66.1,52.7,29.94,SW,224,8.0,10.0,62,0.00,,---,0.00,VWS V14.01,2013-02-24 20:17:00,
2013-02-24 15:22:00,65.8,52.4,29.93,South,191,8.0,9.0,62,0.00,,---,0.00,VWS V14.01,2013-02-24 20:22:00,
2013-02-24 15:27:00,65.3,52.4,29.93,WSW,239,2.0,9.0,63,0.00,,---,0.00,VWS V14.01,2013-02-24 20:27:00,
2013-02-24 15:37:00,65.4,52.1,29.93,South,170,4.0,9.0,62,0.00,,---,0.00,VWS V14.01,2013-02-24 20:37:00,
2013-02-24 15:42:00,65.4,52.1,29.93,SSW,198,4.0,7.0,62,0.00,,---,0.00,VWS V14.01,2013-02-24 20:42:00,
2013-02-24 15:47:00,65.4,52.1,29.93,SW,236,3.0,8.0,62,0.00,,---,0.00,VWS V14.01,2013-02-24 20:47:00,
2013-02-24 15:52:00,65.7,53.2,29.93,SSW,198,2.0,6.0,64,0.00,,---,0.00,VWS V14.01,2013-02-24 20:52:00,
2013-02-24 15:57:00,65.3,53.2,29.93,South,188,6.0,8.0,65,0.00,,---,0.00,VWS V14.01,2013-02-24 20:57:00,
2013-02-24 16:02:00,64.6,52.6,29.93,SSE,162,8.0,10.0,65,0.00,,---,0.00,VWS V14.01,2013-02-24 21:02:00,
2013-02-24 16:07:00,63.5,54.3,29.93,SSE,163,6.0,8.0,72,0.00,,---,0.00,VWS V14.01,2013-02-24 21:07:00,
2013-02-24 16:17:00,63.1,53.2,29.93,South,174,7.0,10.0,70,0.00,,---,0.00,VWS V14.01,2013-02-24 21:17:00,
2013-02-24 16:22:00,62.8,52.9,29.93,SSE,165,5.0,10.0,70,0.00,,---,0.00,VWS V14.01,2013-02-24 21:22:00,
2013-02-24 16:27:00,62.7,52.0,29.93,South,170,5.0,9.0,68,0.00,,---,0.00,VWS V14.01,2013-02-24 21:27:00,
2013-02-24 16:37:00,62.7,52.0,29.93,SSE,167,5.0,8.0,68,0.00,,---,0.00,VWS V14.01,2013-02-24 21:37:00,
2013-02-24 16:47:00,62.8,52.1,29.93,South,176,5.0,7.0,68,0.00,,---,0.00,VWS V14.01,2013-02-24 21:47:00,
2013-02-24 16:57:00,62.6,52.3,29.93,SE,139,4.0,4.0,69,0.00,,---,0.00,VWS V14.01,2013-02-24 21:57:00,
2013-02-24 17:03:00,62.6,52.3,29.93,South,173,2.0,4.0,69,0.00,,---,0.00,VWS V14.01,2013-02-24 22:03:00,
2013-02-24 17:12:00,62.8,52.9,29.94,SSE,149,1.0,3.0,70,0.00,,---,0.00,VWS V14.01,2013-02-24 22:12:00,
2013-02-24 17:22:00,62.5,53.0,29.94,SSE,166,0.0,3.0,71,0.00,,---,0.00,VWS V14.01,2013-02-24 22:22:00,
2013-02-24 17:27:00,62.5,53.0,29.94,SSE,160,2.0,2.0,71,0.00,,---,0.00,VWS V14.01,2013-02-24 22:27:00,
2013-02-24 17:32:00,62.0,52.9,29.94,SE,141,1.0,4.0,72,0.00,,---,0.00,VWS V14.01,2013-02-24 22:32:00,
2013-02-24 17:37:00,61.4,53.0,29.94,SE,124,5.0,5.0,74,0.00,,---,0.00,VWS V14.01,2013-02-24 22:37:00,
2013-02-24 17:47:00,59.7,52.5,29.94,SE,142,1.0,5.0,77,0.00,,---,0.00,VWS V14.01,2013-02-24 22:47:00,
2013-02-24 17:57:00,58.8,53.0,29.94,SE,145,1.0,4.0,81,0.00,,---,0.00,VWS V14.01,2013-02-24 22:57:00,
2013-02-24 18:02:00,58.2,53.1,29.94,SE,143,3.0,5.0,83,0.00,,---,0.00,VWS V14.01,2013-02-24 23:02:00,
2013-02-24 18:07:00,57.7,53.2,29.95,ESE,119,2.0,4.0,85,0.00,,---,0.00,VWS V14.01,2013-02-24 23:07:00,
2013-02-24 18:12:00,57.3,53.2,29.95,SE,136,2.0,2.0,86,0.00,,---,0.00,VWS V14.01,2013-02-24 23:12:00,
2013-02-24 18:22:00,56.5,52.7,29.95,South,173,0.0,1.0,87,0.00,,---,0.00,VWS V14.01,2013-02-24 23:22:00,
2013-02-24 18:27:00,56.2,52.7,29.95,SSE,155,0.0,0.0,88,0.00,,---,0.00,VWS V14.01,2013-02-24 23:27:00,
2013-02-24 18:37:00,55.5,52.3,29.96,SSE,147,0.0,0.0,89,0.00,,---,0.00,VWS V14.01,2013-02-24 23:37:00,
2013-02-24 18:42:00,55.2,52.3,29.96,SE,146,0.0,0.0,90,0.00,,---,0.00,VWS V14.01,2013-02-24 23:42:00,
2013-02-24 18:47:00,54.9,52.0,29.96,SE,146,0.0,0.0,90,0.00,,---,0.00,VWS V14.01,2013-02-24 23:47:00,
2013-02-24 18:52:00,54.6,52.0,29.96,SE,146,0.0,0.0,91,0.00,,---,0.00,VWS V14.01,2013-02-24 23:52:00,
2013-02-24 19:02:00,54.3,52.0,29.97,SE,146,0.0,0.0,92,0.00,,---,0.00,VWS V14.01,2013-02-25 00:02:00,
2013-02-24 19:12:00,54.0,52.0,29.98,South,191,0.0,1.0,93,0.00,,---,0.00,VWS V14.01,2013-02-25 00:12:00,
2013-02-24 19:17:00,54.1,52.1,29.98,South,191,0.0,0.0,93,0.00,,---,0.00,VWS V14.01,2013-02-25 00:17:00,
2013-02-24 19:27:00,54.1,52.4,29.98,South,187,0.0,2.0,94,0.00,,---,0.00,VWS V14.01,2013-02-25 00:27:00,
2013-02-24 19:32:00,54.2,52.2,29.98,South,176,0.0,0.0,93,0.00,,---,0.00,VWS V14.01,2013-02-25 00:32:00,
2013-02-24 19:37:00,54.3,52.3,29.98,SSE,162,0.0,0.0,93,0.00,,---,0.00,VWS V14.01,2013-02-25 00:37:00,
2013-02-24 19:47:00,54.1,52.1,29.99,SSE,159,0.0,0.0,93,0.00,,---,0.00,VWS V14.01,2013-02-25 00:47:00,
2013-02-24 19:52:00,53.8,51.8,29.99,SSE,159,0.0,0.0,93,0.00,,---,0.00,VWS V14.01,2013-02-25 00:52:00,
2013-02-24 19:57:00,53.7,52.0,29.99,SSE,160,0.0,0.0,94,0.00,,---,0.00,VWS V14.01,2013-02-25 00:57:00,
2013-02-24 20:02:00,53.5,51.8,29.99,SSE,159,0.0,0.0,94,0.00,,---,0.00,VWS V14.01,2013-02-25 01:02:00,
2013-02-24 20:12:00,53.0,51.3,29.99,SSE,159,0.0,0.0,94,0.00,,---,0.00,VWS V14.01,2013-02-25 01:12:00,
2013-02-24 20:17:00,52.9,51.2,29.99,SSE,159,0.0,0.0,94,0.00,,---,0.00,VWS V14.01,2013-02-25 01:17:00,
2013-02-24 20:22:00,52.8,51.4,29.99,SSE,159,0.0,0.0,95,0.00,,---,0.00,VWS V14.01,2013-02-25 01:22:00,
2013-02-24 20:32:00,52.5,51.1,29.98,SSE,159,0.0,0.0,95,0.00,,---,0.00,VWS V14.01,2013-02-25 01:32:00,
2013-02-24 20:42:00,52.2,50.8,29.98,SSE,159,0.0,0.0,95,0.00,,---,0.00,VWS V14.01,2013-02-25 01:42:00,
2013-02-24 20:47:00,52.3,51.2,29.99,SSE,159,0.0,0.0,96,0.00,,---,0.00,VWS V14.01,2013-02-25 01:47:00,
2013-02-24 20:52:00,52.2,51.1,29.99,SSE,159,0.0,0.0,96,0.00,,---,0.00,VWS V14.01,2013-02-25 01:52:00,
2013-02-24 20:57:00,52.2,51.1,29.99,SSE,159,0.0,0.0,96,0.00,,---,0.00,VWS V14.01,2013-02-25 01:57:00,
2013-02-24 21:02:00,52.1,51.0,29.99,SSE,159,0.0,0.0,96,0.00,,---,0.00,VWS V14.01,2013-02-25 02:02:00,
2013-02-24 21:07:00,52.0,50.9,29.99,SSE,158,0.0,0.0,96,0.00,,---,0.00,VWS V14.01,2013-02-25 02:07:00,
2013-02-24 21:12:00,51.9,50.8,30.00,SSE,159,0.0,0.0,96,0.00,,---,0.00,VWS V14.01,2013-02-25 02:12:00,
2013-02-24 21:17:00,51.7,50.6,30.00,SSE,159,0.0,0.0,96,0.00,,---,0.00,VWS V14.01,2013-02-25 02:17:00,
2013-02-24 21:22:00,51.5,50.4,30.00,SSE,159,0.0,0.0,96,0.00,,---,0.00,VWS V14.01,2013-02-25 02:22:00,
2013-02-24 21:32:00,51.5,50.7,30.00,SSE,159,0.0,0.0,97,0.00,,---,0.00,VWS V14.01,2013-02-25 02:32:00,
2013-02-24 21:42:00,51.3,50.5,30.00,SSE,159,0.0,0.0,97,0.00,,---,0.00,VWS V14.01,2013-02-25 02:42:00,
2013-02-24 21:47:00,51.2,50.4,30.00,SSE,159,0.0,0.0,97,0.00,,---,0.00,VWS V14.01,2013-02-25 02:47:00,
2013-02-24 21:52:00,51.2,50.4,30.00,SSE,159,0.0,0.0,97,0.00,,---,0.00,VWS V14.01,2013-02-25 02:52:00,
2013-02-24 21:57:00,51.1,50.3,30.00,SSE,159,0.0,0.0,97,0.00,,---,0.00,VWS V14.01,2013-02-25 02:57:00,
2013-02-24 22:02:00,51.1,50.3,30.00,SSE,159,0.0,0.0,97,0.00,,---,0.00,VWS V14.01,2013-02-25 03:02:00,
2013-02-24 22:07:00,50.9,50.1,30.00,SSE,158,0.0,0.0,97,0.00,,---,0.00,VWS V14.01,2013-02-25 03:07:00,
2013-02-24 22:12:00,50.8,50.0,30.00,SSE,159,0.0,0.0,97,0.00,,---,0.00,VWS V14.01,2013-02-25 03:12:00,
2013-02-24 22:22:00,50.6,49.8,30.00,SSE,159,0.0,0.0,97,0.00,,---,0.00,VWS V14.01,2013-02-25 03:22:00,
2013-02-24 22:27:00,50.3,49.5,30.00,SSE,159,0.0,0.0,97,0.00,,---,0.00,VWS V14.01,2013-02-25 03:27:00,
2013-02-24 22:32:00,50.2,49.4,30.00,SSE,156,0.0,0.0,97,0.00,,---,0.00,VWS V14.01,2013-02-25 03:32:00,
2013-02-24 22:37:00,50.1,49.3,30.00,SSE,157,0.0,0.0,97,0.00,,---,0.00,VWS V14.01,2013-02-25 03:37:00,
2013-02-24 22:42:00,50.0,49.2,30.00,SSE,156,0.0,0.0,97,0.00,,---,0.00,VWS V14.01,2013-02-25 03:42:00,
2013-02-24 22:47:00,50.0,49.2,30.00,SSE,156,0.0,0.0,97,0.00,,---,0.00,VWS V14.01,2013-02-25 03:47:00,
2013-02-24 22:52:00,49.9,49.1,30.00,SSE,156,0.0,0.0,97,0.00,,---,0.00,VWS V14.01,2013-02-25 03:52:00,
2013-02-24 22:57:00,49.7,48.9,30.00,SE,127,0.0,0.0,97,0.00,,---,0.00,VWS V14.01,2013-02-25 03:57:00,
2013-02-24 23:02:00,49.6,48.8,30.00,SE,127,0.0,0.0,97,0.00,,---,0.00,VWS V14.01,2013-02-25 04:02:00,
2013-02-24 23:12:00,49.5,48.7,30.00,SE,127,0.0,0.0,97,0.00,,---,0.00,VWS V14.01,2013-02-25 04:12:00,
2013-02-24 23:17:00,49.6,48.8,30.00,SE,127,0.0,0.0,97,0.00,,---,0.00,VWS V14.01,2013-02-25 04:17:00,
2013-02-24 23:22:00,49.7,49.2,29.99,SE,127,0.0,0.0,98,0.00,,---,0.00,VWS V14.01,2013-02-25 04:22:00,
2013-02-24 23:32:00,49.6,48.8,29.99,SE,127,0.0,0.0,97,0.00,,---,0.00,VWS V14.01,2013-02-25 04:32:00,
2013-02-24 23:37:00,49.6,49.1,29.99,SE,127,0.0,0.0,98,0.00,,---,0.00,VWS V14.01,2013-02-25 04:37:00,
2013-02-24 23:42:00,49.6,49.1,29.99,SE,127,0.0,0.0,98,0.00,,---,0.00,VWS V14.01,2013-02-25 04:42:00,
2013-02-24 23:47:00,49.8,49.3,29.99,SE,127,0.0,0.0,98,0.00,,---,0.00,VWS V14.01,2013-02-25 04:47:00,
2013-02-24 23:57:00,49.9,49.4,30.00,SE,127,0.0,0.0,98,0.00,,---,0.00,VWS V14.01,2013-02-25 04:57:00,